Regional Weather Roundup
Issued by NWS Goodland, KS

Home | Current Version | Previous Version | Graphics & Text | Print | Product List | Glossary On
Versions: 1 2 3 4 5 6 7 8 9 10 11 12 13 14 15 16 17 18 19 20 21 22 23 24 25 26 27 28 29 30 31 32 33 34 35 36 37 38 39 40 41 42 43 44 45 46 47 48 49 50
000
ASUS43 KGLD 290859
RWRGLD

GOODLAND FORECAST AREA HOURLY WEATHER ROUNDUP
NATIONAL WEATHER SERVICE GOODLAND KS
300 AM MDT WED JUL 29 2015

...OFFICIAL OBSERVATIONS...

CITY           SKY/WX    TMP DP  RH WIND       PRES   REMARKS
GOODLAND KS    CLOUDY    60  51  72 S3        30.23R
HILL CITY KS   MOCLDY    63  58  83 NE9       30.15R
IMPERIAL NEB   CLEAR     57  48  72 NW5       30.22R
MCCOOK NEB     PTCLDY    59  50  72 CALM      30.18R
AKRON CO       MOCLDY    63  46  54 SE8       30.27R
BURLINGTON CO  CLOUDY    63  52  67 SE5       30.26R
LIMON CO       MOCLDY    59  47  64 CALM      30.32R
$$

...UNOFFICIAL OBSERVATIONS...

CITY           SKY/WX    TMP DP  RH WIND       PRES   REMARKS
COLBY KS       CLEAR     63  55  77 CALM      30.21R
NORTON KS      CLEAR     57  54  88 NE6       30.17S
SHARON SPRINGS   N/A     61  57  87 CALM        N/A
KIT CARSON CO    N/A     59  49  70 MISG        N/A
$$


USA.gov is the U.S. government's official web portal to all federal, state and local government web resources and services.